Terminal Aerodrome Forecast
Issued by NWS Mt. Holly, NJ

Home | Current Version | Previous Version | Text Only | Print | Product List | Glossary On
Versions: 1 2 3 4 5 6 7 8 9 10 11 12 13 14 15 16 17 18 19 20 21 22 23 24 25 26 27
000
FTAK31 PANC 190533
TAFABE
TAF
PABE 190533Z 1906/2006 VRB05KT P6SM VCSH SCT025 BKN040 OVC060
      TEMPO 1906/1910 BKN025
     FM191200 05007KT P6SM SCT040 BKN080=

USA.gov is the U.S. government's official web portal to all federal, state and local government web resources and services.